weather.gov     
National Weather Service

Regional Weather Roundup
NWS Homepage
This page is being discontinued on March 12, 2014.
The same data is available at this site. Please update your bookmarks.
Thank you, and we apologize for the inconvenience.
Please send an email to SR-SRH.Webmaster@noaa.gov with any concerns.


Current Version
Previous Version:    01  02  03  04  05  06  07  08  09  10  11  12  13  14  15  16  17  18  19  20  21  22  23  24  25  26  27  
[Printable]
424
ASUS41 KAKQ 252010
RWRAKQ

REGIONAL WEATHER ROUNDUP
NATIONAL WEATHER SERVICE WAKEFIELD VA
300 PM EST SUN JAN 25 2015

Note: "fair" indicates few or no clouds below 12,000 feet with no
significant weather and/or obstructions to visibility. * = Denotes
station may not report precipitation (e.g., rain,snow,etc.),
thunder or fog.

VAZ042-051-052>054-056-252100-
NORTHERN VIRGINIA

CITY           SKY/WX    TMP DP  RH WIND       PRES   REMARKS
WASH NATIONAL  PTSUNNY   50  31  48 SW7       29.83S
DULLES         CLOUDY    46  31  55 S8        29.81S
FORT BELVOIR   PTSUNNY   49  30  48 VRB6      29.83F
QUANTICO       PTSUNNY   45  32  60 SW5       29.84F
FREDERICKSBRG* PTSUNNY   51  32  48 SW7       29.82R
STAFFORD*      PTSUNNY   50  30  46 CALM      29.87R
WARRENTON      CLOUDY    48  37  66 SW5       29.81S
CULPEPER*      CLOUDY    48  34  57 S6        29.82S
MANASSAS*      SUNNY     48  32  53 SW7       29.82F
LEESBURG*      CLOUDY    46  34  61 S9        29.81S
WINCHESTER     CLOUDY    45  28  53 CALM      29.78S
FRONT ROYAL*   CLOUDY    43  32  65 CALM      29.77F
LURAY*         FAIR      45  34  65 SW8       29.79R
$$

VAZ048-049-060>072-079>083-252100-
CENTRAL AND SOUTH CENTRAL VIRGINIA

CITY           SKY/WX    TMP DP  RH WIND       PRES   REMARKS
RICHMOND       PTSUNNY   53  32  44 S7        29.84F
CHESTERFIELD*  FAIR      54  28  37 S8        29.85F
PETERSBURG*    SUNNY     54  31  40 S3        29.85S
HANOVER        MOSUNNY   52  32  46 SW9       29.85S
TAPPAHANNOCK*  MOSUNNY   52  26  36 SE6       29.84S
QUINTON*       FAIR      52  30  43 S5        29.84F
CHARLOTTSVILLE CLOUDY    47  32  56 SW6       29.81R
GORDONSVILLE*  FAIR      47  32  57 CALM      29.81S
ORANGE*        CLOUDY    48  34  57 S9        29.83S
LOUISA*        PTSUNNY   52  34  50 W5        29.81R
BUMPASS*       FAIR      51  32  47 CALM      29.82S
FARMVILLE*     MOSUNNY   55  33  43 S5        29.81F
CREWE*         FAIR      53  32  44 S9        29.83S
FORT PICKETT*  FAIR      52  34  51 S10       29.83F
CHASE CITY*    FAIR      55  35  46 S6        29.83S
CLARKSVILLE*   FAIR      54  34  47 S7        29.83S
SOUTH HILL*    SUNNY     52  33  48 S6        29.90S
LAWRENCEVILLE* FAIR      52  35  51 S3        29.84F
EMPORIA*       SUNNY     52  32  46 S6        29.87F
$$

VAZ088>098-252100-
SOUTHEAST VIRGINIA

CITY           SKY/WX    TMP DP  RH WIND       PRES   REMARKS
NORFOLK        SUNNY     52  29  41 SW10      29.86F
VIRGINIA BEACH MOSUNNY   52  31  44 S9        29.86F
NORFOLK NAVAL  PTSUNNY   55  29  36 SW7       29.87F
WEST POINT*    SUNNY     54  28  36 S8        29.86F
SALUDA*        FAIR      50  32  49 SE3       29.84F
NEWPORT NEWS   SUNNY     53  32  44 SW6       29.86F
LANGLEY AFB    SUNNY     51  31  47 W8        29.86F
FORT EUSTIS    SUNNY     51  38  59 S8        29.85F
WILLIAMSBURG*    N/A     55  36  47 SE6       29.87S
HR EXEC AP*    FAIR      52  32  46 SW7       29.89F
FRANKLIN*      SUNNY     51  32  48 S3        29.87F
WAKEFIELD      SUNNY     53  32  44 SW8       29.86F
$$

VAZ020-022-025-037-045-252100-
WEST CENTRAL AND SOUTHWEST VIRGINIA

CITY           SKY/WX    TMP DP  RH WIND       PRES   REMARKS
STAUNTON*      CLOUDY    45  32  61 SW8       29.81S
WAYNESBORO*    FAIR      44  32  62 SW6       29.78F
HOT SPRINGS VA CLOUDY    33  33 100 SW3       29.71S
LYNCHBURG      PTSUNNY   50  32  50 S7        29.80F
DANVILLE       MOSUNNY   55  30  38 SW9       29.80F
SOUTH BOSTON*  FAIR      55  30  37 S6        29.82F
MARTINSVILLE   MOSUNNY   56  30  36 S7        29.81S
ROANOKE        CLOUDY    49  31  49 E7        29.79F
BLACKSBURG     PTSUNNY   47  31  53 CALM      29.78F
DUBLIN*        PTSUNNY   50  33  51 CALM      29.76S
MARION*        MOSUNNY   50  32  50 N5        29.74F
HILLSVILLE*    PTSUNNY   46  31  56 SE8G17    29.74F
RICHLANDS*     FAIR      46  26  44 SW6       29.72S
WISE*          MOSUNNY   45  30  57 SW9       29.73S
ABINGDON*      SUNNY     53  30  40 W7        29.73S
$$

MDZ021>025-VAZ099-100-252100-
SOUTHERN MARYLAND AND THE DELMARVA PENINSULA

CITY           SKY/WX    TMP DP  RH WIND       PRES   REMARKS
PATUXENT RIVER PTSUNNY   50  28  42 SW7       29.83F
BAY BRIDGE APT   N/A     48  28  46 CALM      29.82F
LEONARDTOWN    SUNNY     48  30  49 SW6       29.84F
DOVER          PTSUNNY   48  32  54 W8        29.78S
GEORGETOWN     PTSUNNY   49  30  48 W3        29.83S
EASTON         MOSUNNY   50  32  50 SW7       29.86S
CAMBRIDGE      MOSUNNY   52  32  46 SW5       29.83S
SALISBURY      PTSUNNY   50  31  48 SW9       29.84S
OCEAN CITY     MOSUNNY   49  31  49 W6        29.85R
WALLOPS ISLAND SUNNY     49  29  46 W9        29.86S
ACCOMACK*      SUNNY     48  27  43 SW8       29.86S
$$

NCZ012>017-030>032-252100-
NORTH CENTRAL AND EASTERN NORTH CAROLINA

CITY           SKY/WX    TMP DP  RH WIND       PRES   REMARKS
ROANOKE RAPIDS FAIR      54  34  47 S6        29.87F
RALEIGH        MOSUNNY   54  32  43 S8        29.86F
ELIZABETH CITY SUNNY     50  31  48 S12       29.89F
AHOSKIE*       SUNNY     51  32  47 S6        29.88S
EDENTON*       SUNNY     52  32  47 S6        29.89F
CURRITUCK*     SUNNY     51  29  44 S5        29.90S
KILL DEVIL HLS SUNNY     49  30  47 SE3       29.90R
MANTEO         SUNNY     46  32  57 S10       29.92R
CAPE HATTERAS  SUNNY     49  31  49 VRB5      29.93S
TARBORO*       FAIR      54  33  45 S6        29.89F
GOLDSBORO      SUNNY     55  39  56 S1        29.86F
WASHINGTON     SUNNY     52  32  46 W3        29.90F
GREENVILLE     SUNNY     54  32  43 SW5       29.91F
NEW BERN       SUNNY     56  32  40 CALM      29.90F
WILMINGTON     SUNNY     53  35  50 SE9       29.90F
$$

VAZ048-252100-
ELSEWHERE

CITY           SKY/WX    TMP DP  RH WIND       PRES   REMARKS
HARRISBURG PA  CLOUDY    38  31  76 NW8       29.80S
BALTIMORE      CLOUDY    49  30  48 W7        29.80F
ANNAPOLIS      PTSUNNY   48  29  47 NW5       29.81F
ANDREWS AFB    PTSUNNY   49  31  49 W5        29.81F
PHILADELPHIA   PTSUNNY   46  30  53 W14       29.82R
HENDERSON NC   SUNNY     53  31  43 S7        29.85S
GREENSBORO     PTSUNNY   54  31  41 S9        29.79F
ROCKY MOUNT    SUNNY     54  33  45 S3        29.88F
$$

VAZ100-252100-
MARINE

STATION/POSITION TIME  TEMP    WIND        PRES    WAVE   SWELL
                       AIR SEA DIR/SP/G            HT/PER HT/PER
                 (UTC) (F)     (DEG/KT/KT) (MB)    (FT/S) (FT/S)
BRANDYWINE LGT   2000   46 38  250/  5/  5 1010.0R
CAPE MAY NJ      2000   42 39  250/  4/  5 1009.5R
LEWES DE         2000   47 38  290/  5/  6 1009.9R
15NM E FENWICK I 2000   44 43              1010.2S   3/11
OCEAN-CITY-INLET 2000   48 40  310/  5/  8 1010.1R
WACHAPREAGUE VA  2000   49 40  230/  7/ 12 1011.4S
THOMAS POINT MD  2000   45 37  120/  2/  2 1010.9F
GOOSES REEF MD   2000   43     VRB  6/  6  1009.1S
COVE POINT MD    2000   49     290/  2/  6 1010.1R
SOLOMONS ISLAND  2000      38                N/A
BISHOPS HEAD MD  2000   45 42  200/ 11/ 12 1010.1S
PINEY POINT MD   2000          170/  5/  5   N/A
POTOMAC MD       2000   42     150/  8/  8 1009.7F
CAMBRIDGE MD     2000   49 36  230/  6/  8 1009.9F
LEWISETTA VA     2000   48 40  240/  5/  6 1010.1S
RAPPAHANNOCK LGT 2000          170/  9/ 10 1011.5F
STINGRAY PT      2000   42     160/ 12/ 12 1011.4F
YORK RVR RNG VA  2000   45     150/ 10/ 10 1010.4S
YORKTOWN VA      2000   50 41  220/  7/ 11 1010.7S
JAMESTOWN VA     2000   49     150/  4/  6   N/A
DOMINION TERM VA 2000   47     200/  4/  5 1011.3F
KIPTOPEKE VA     2000      45  170/  6/  7   N/A
CHES BAY BRIDGE  2000   44 41   60/  7/  8 1011.0F
CAPE HENRY VA    2000   46     130/  9/ 14 1010.1F
CHESAPEAKE LGHT  1900   45     200/ 10/ 10 1012.6F
WILLOUBY STN VA  2000   51     240/  2/  2 1011.8S
S CRANEY ISL VA  2000           30/  1/  3 1011.2S
CAPE HENRY BUOY  2000      45                N/A     2/12   2/12
1ST LANDING BUOY 2000   45     120/  8/ 10 1011.5S
CAPE CHARLES BUO 2000      44                N/A     2/11   2/11
OFFSHORE WE BUOY 2000      47                N/A     3/10   3/10
64NM E OF VA BCH 2000   46 53  250/  6/  8 1012.1R   4/10   3/10
DUCK PIER NC     2000   48 44  130/  6/  7 1011.8R
44100 DUCK FRF   2000      45                N/A     3/11   2/11
44056 DUCK FRF   2000      45                N/A     2/ 8   2/11
OREGON INLET NC  2000   46 46  180/  7/  8 1013.0R
HATTERAS NC      2000   50 53   CALM  /  2 1013.8F




U.S. Dept. of Commerce
NOAA National Weather Service
1325 East West Highway
Silver Spring, MD 20910
E-mail: w-nws.webmaster@noaa.gov
Page last modified: May 16, 2007
NATIONAL WEATHER SERVICE: for Safety, for Work, for Fun - FOR LIFE